Stündliche Wetter Abadia

Heute, 7 März, Sonntag

Zeit Temperatur Niederschläge Wind Luftdruck Luftfeuchtigkeit
00:00 +10°C° 0 mm 1 m/S 723 mmHg 82%
01:00 +10°C° 0 mm 1 m/S 722 mmHg 83%
02:00 +8°C° 0 mm 0 m/S 722 mmHg 84%
03:00 +8°C° 0 mm 0 m/S 722 mmHg 85%
04:00 +8°C° 0 mm 0 m/S 722 mmHg 86%
05:00 +7°C° 0 mm 0 m/S 722 mmHg 87%
06:00 +8°C° 0 mm 1 m/S 722 mmHg 86%
07:00 +8°C° 0 mm 0 m/S 722 mmHg 82%
08:00 +10°C° 0 mm 0 m/S 722 mmHg 78%
09:00 +11°C° 0 mm 0 m/S 722 mmHg 74%
10:00 +14°C° 0.1 mm 1 m/S 722 mmHg 69%
11:00 +15°C° 0.1 mm 1 m/S 722 mmHg 64%
12:00 +16°C° 0.1 mm 1 m/S 721 mmHg 59%
13:00 +16°C° 0.5 mm 1 m/S 721 mmHg 60%
14:00 +16°C° 0.5 mm 1 m/S 720 mmHg 62%
15:00 +16°C° 0.5 mm 1 m/S 719 mmHg 64%
16:00 +15°C° 0.6 mm 1 m/S 719 mmHg 69%
17:00 +13°C° 0.6 mm 1 m/S 719 mmHg 75%
18:00 +11°C° 0.6 mm 0 m/S 718 mmHg 81%
19:00 +11°C° 0 mm 1 m/S 719 mmHg 82%
20:00 +10°C° 0 mm 1 m/S 719 mmHg 83%
21:00 +9°C° 0 mm 1 m/S 719 mmHg 84%
22:00 +9°C° 0 mm 1 m/S 719 mmHg 85%
23:00 +8°C° 0 mm 1 m/S 719 mmHg 85%

Morgen, 8 März, Montag

Zeit Temperatur Niederschläge Wind Luftdruck Luftfeuchtigkeit
00:00 +8°C° 0 mm 1 m/S 719 mmHg 86%
01:00 +8°C° 0 mm 1 m/S 719 mmHg 86%
02:00 +8°C° 0 mm 1 m/S 719 mmHg 87%
03:00 +7°C° 0 mm 1 m/S 718 mmHg 88%
04:00 +7°C° 0 mm 1 m/S 719 mmHg 88%
05:00 +7°C° 0 mm 1 m/S 719 mmHg 89%
06:00 +7°C° 0 mm 1 m/S 719 mmHg 89%
07:00 +8°C° 0 mm 1 m/S 719 mmHg 87%
08:00 +10°C° 0 mm 1 m/S 719 mmHg 84%
09:00 +11°C° 0 mm 1 m/S 720 mmHg 81%
10:00 +12°C° 0.3 mm 1 m/S 720 mmHg 77%
11:00 +14°C° 0.3 mm 1 m/S 720 mmHg 73%
12:00 +15°C° 0.3 mm 1 m/S 720 mmHg 69%
13:00 +15°C° 0.5 mm 2 m/S 719 mmHg 69%
14:00 +15°C° 0.5 mm 2 m/S 719 mmHg 68%
15:00 +14°C° 0.5 mm 3 m/S 719 mmHg 67%
16:00 +12°C° 0.2 mm 3 m/S 719 mmHg 71%
17:00 +11°C° 0.2 mm 3 m/S 718 mmHg 74%
18:00 +10°C° 0.2 mm 3 m/S 718 mmHg 77%
19:00 +8°C° 0 mm 4 m/S 719 mmHg 78%
20:00 +7°C° 0 mm 4 m/S 720 mmHg 78%
21:00 +5°C° 0 mm 4 m/S 720 mmHg 79%
22:00 +5°C° 0 mm 4 m/S 721 mmHg 80%
23:00 +4°C° 0 mm 3 m/S 721 mmHg 81%

übermorgen, 9 März, Dienstag

Zeit Temperatur Niederschläge Wind Luftdruck Luftfeuchtigkeit
00:00 +4°C° 0 mm 3 m/S 721 mmHg 82%
01:00 +4°C° 0 mm 3 m/S 721 mmHg 82%
02:00 +4°C° 0 mm 3 m/S 721 mmHg 82%
03:00 +4°C° 0 mm 3 m/S 722 mmHg 82%
04:00 +3°C° 0 mm 3 m/S 722 mmHg 82%
05:00 +3°C° 0 mm 3 m/S 722 mmHg 83%
06:00 +3°C° 0 mm 3 m/S 722 mmHg 83%
07:00 +4°C° 0 mm 3 m/S 722 mmHg 79%
08:00 +7°C° 0 mm 2 m/S 723 mmHg 75%
09:00 +8°C° 0 mm 2 m/S 723 mmHg 71%
10:00 +9°C° 0 mm 2 m/S 723 mmHg 66%
11:00 +12°C° 0 mm 2 m/S 723 mmHg 61%
12:00 +14°C° 0 mm 2 m/S 723 mmHg 56%
13:00 +14°C° 0 mm 2 m/S 723 mmHg 55%
14:00 +14°C° 0 mm 1 m/S 722 mmHg 54%
15:00 +15°C° 0 mm 1 m/S 722 mmHg 53%
16:00 +13°C° 0 mm 1 m/S 722 mmHg 57%
17:00 +12°C° 0 mm 1 m/S 722 mmHg 62%
18:00 +11°C° 0 mm 1 m/S 722 mmHg 66%
19:00 +9°C° 0 mm 2 m/S 722 mmHg 67%
20:00 +7°C° 0 mm 2 m/S 723 mmHg 69%
21:00 +6°C° 0 mm 2 m/S 724 mmHg 70%
22:00 +6°C° 0 mm 2 m/S 724 mmHg 68%
23:00 +5°C° 0 mm 2 m/S 724 mmHg 67%

10 März, Mittwoch

Zeit Temperatur Niederschläge Wind Luftdruck Luftfeuchtigkeit
00:00 +6°C° 0 mm 1 m/S 724 mmHg 66%
01:00 +6°C° 0 mm 1 m/S 724 mmHg 65%
02:00 +6°C° 0 mm 1 m/S 724 mmHg 65%
03:00 +6°C° 0 mm 1 m/S 724 mmHg 64%
04:00 +6°C° 0 mm 1 m/S 725 mmHg 62%
05:00 +5°C° 0 mm 1 m/S 725 mmHg 61%
06:00 +5°C° 0 mm 1 m/S 725 mmHg 60%
07:00 +7°C° 0 mm 1 m/S 725 mmHg 56%
08:00 +9°C° 0 mm 1 m/S 726 mmHg 52%
09:00 +10°C° 0 mm 0 m/S 727 mmHg 48%
10:00 +13°C° 0 mm 1 m/S 727 mmHg 46%
11:00 +15°C° 0 mm 1 m/S 727 mmHg 44%
12:00 +16°C° 0 mm 1 m/S 727 mmHg 43%
13:00 +18°C° 0 mm 1 m/S 726 mmHg 43%
14:00 +18°C° 0 mm 1 m/S 726 mmHg 44%
15:00 +17°C° 0 mm 2 m/S 726 mmHg 44%
16:00 +16°C° 0 mm 1 m/S 726 mmHg 52%
17:00 +14°C° 0 mm 1 m/S 726 mmHg 59%
18:00 +13°C° 0 mm 1 m/S 726 mmHg 67%
19:00 +11°C° 0 mm 1 m/S 726 mmHg 68%
20:00 +10°C° 0 mm 1 m/S 727 mmHg 70%
21:00 +9°C° 0 mm 1 m/S 727 mmHg 71%
22:00 +8°C° 0 mm 0 m/S 727 mmHg 71%
23:00 +8°C° 0 mm 0 m/S 727 mmHg 71%

11 März, Donnerstag

Zeit Temperatur Niederschläge Wind Luftdruck Luftfeuchtigkeit
00:00 +8°C° 0 mm 0 m/S 728 mmHg 71%
01:00 +8°C° 0 mm 0 m/S 727 mmHg 71%
02:00 +8°C° 0 mm 0 m/S 727 mmHg 71%
03:00 +7°C° 0 mm 0 m/S 727 mmHg 71%
04:00 +7°C° 0 mm 0 m/S 727 mmHg 73%
05:00 +7°C° 0 mm 0 m/S 727 mmHg 74%
06:00 +7°C° 0 mm 0 m/S 727 mmHg 76%
07:00 +8°C° 0 mm 0 m/S 728 mmHg 72%
08:00 +11°C° 0 mm 1 m/S 728 mmHg 68%
09:00 +13°C° 0 mm 1 m/S 728 mmHg 64%
10:00 +14°C° 0 mm 1 m/S 728 mmHg 60%
11:00 +16°C° 0 mm 2 m/S 728 mmHg 57%
12:00 +17°C° 0 mm 2 m/S 728 mmHg 53%
13:00 +18°C° 0 mm 2 m/S 728 mmHg 53%
14:00 +18°C° 0 mm 2 m/S 727 mmHg 54%
15:00 +18°C° 0 mm 2 m/S 727 mmHg 54%
16:00 +17°C° 0 mm 2 m/S 727 mmHg 62%
17:00 +15°C° 0 mm 2 m/S 726 mmHg 70%
18:00 +14°C° 0 mm 2 m/S 726 mmHg 78%
19:00 +13°C° 0 mm 2 m/S 726 mmHg 82%
20:00 +12°C° 0 mm 2 m/S 727 mmHg 86%
21:00 +10°C° 0 mm 2 m/S 727 mmHg 90%
22:00 +9°C° 0 mm 2 m/S 727 mmHg 89%
23:00 +10°C° 0 mm 1 m/S 727 mmHg 88%

12 März, Freitag

Zeit Temperatur Niederschläge Wind Luftdruck Luftfeuchtigkeit
00:00 +10°C° 0 mm 1 m/S 727 mmHg 86%
01:00 +10°C° 0 mm 1 m/S 726 mmHg 87%
02:00 +9°C° 0 mm 1 m/S 726 mmHg 87%
03:00 +9°C° 0 mm 1 m/S 726 mmHg 87%
04:00 +9°C° 0 mm 1 m/S 726 mmHg 89%
05:00 +9°C° 0 mm 1 m/S 726 mmHg 91%
06:00 +9°C° 0 mm 1 m/S 725 mmHg 92%
07:00 +10°C° 0 mm 1 m/S 726 mmHg 88%
08:00 +11°C° 0 mm 1 m/S 726 mmHg 83%
09:00 +13°C° 0 mm 1 m/S 726 mmHg 78%
10:00 +14°C° 0 mm 1 m/S 726 mmHg 70%
11:00 +15°C° 0 mm 1 m/S 726 mmHg 63%
12:00 +17°C° 0 mm 2 m/S 726 mmHg 55%
13:00 +17°C° 0 mm 2 m/S 725 mmHg 55%
14:00 +17°C° 0 mm 3 m/S 725 mmHg 55%
15:00 +17°C° 0 mm 3 m/S 724 mmHg 55%
16:00 +16°C° 0 mm 3 m/S 724 mmHg 61%
17:00 +14°C° 0 mm 2 m/S 724 mmHg 67%
18:00 +13°C° 0 mm 2 m/S 723 mmHg 72%
19:00 +12°C° 0 mm 2 m/S 724 mmHg 75%
20:00 +9°C° 0 mm 2 m/S 724 mmHg 77%
21:00 +8°C° 0 mm 2 m/S 725 mmHg 79%
22:00 +7°C° 0 mm 2 m/S 725 mmHg 80%
23:00 +5°C° 0 mm 3 m/S 725 mmHg 82%
Mehr zeigen

Wir brauchen deine Erlaubnis

Meteoprog und unser Service Anbieter werden persönliche Daten aufbewahren, so wie Cookies, Geräte Bezeichnung oder ähnliche Technologien von deinem Gerät und Prozess, so wie Persönliche Daten Inhalte und Werbungen, genauso wie social Media und den Verkehr zu analysieren.

  • Aufbewahrung und/oder Zugang zu deiner Geräte Informationen.

    Cookies, Geräte Bezeichnung oder andere Informationen, können aufbewahrt oder Zugang zu deinem Gerät erhalten, für den Grund, der oben angegeben wird.

  • Personalisierte Werbung und Inhalte, Messungen, Einblick in das Publikum und Produkt Entwicklung.

    Werbungen und Inhalte können personalisiert werden, basierend auf ein Profil. Mehr Daten können besser personalisierte Werbungen und Inhalte hinzufügen. Werbung und Inhalte können gezeigt und gemessen werden. Einblicke über das Publikum, welche die Werbung gesehen haben und den Inhalt, können abgeleitet werden. So wie Daten können genutzt werden, um es zu verbessern oder die Benutzer Erfahrung zu verbessern das System und die Software.

Wenn du “Ich stimme zu” klickst, erlaubst du uns, die Cookies zu benutzen die Geräte Bezeichnung, den Web oder ähnliche Technologien zu benutzen. Deine Settings, können in deinem Gerät bei deinem Browser geändert werden.

Für den bestimmten Zweck, berechtigten Interessen beruhen darauf, mehr als auf den Inhalt. Du kannst mehr darüber in unseren Privaten und Cookie Politik lesen.